Location: Borbetomagus
(49.6328°N, 8.3592°E)
Time: 19:18:18
(UTC+00:00)

Cosmos 1420 Rocket - Pass Details

Date: 19 May 2025
Orbit: 750 x 777 km, 74.0° (Epoch: 20 June)

Event Time Altitude Azimuth Distance (km) Brightness Sun altitude
Rises 23:34:12 0° 334° (NNW) 3,270 8.3 -20.3°
Reaches altitude 10° 23:36:37 10° 331° (NNW) 2,338 7.3 -20.3°
Maximum altitude 23:41:52 63° 252° (WSW) 865 4.1 -20.3°
Enters shadow 23:43:28 42° 191° (S) 1,090 4.3 -20.2°
